Hollywood, FL

3:07 AM EDT on October 22, 2019 (GMT -0400)
North Perry

Weather History for KHWO - August, 2019

Change the Weather History Date:

Friday, August 23, 2019

  Actual Average (KFLL) Record (KFLL)
Temperature  
Mean Temperature 84 °F 84 °F  
Max Temperature 89 °F 90 °F 98 °F (1958)
Min Temperature 79 °F 79 °F 68 °F (1994)
Degree Days  
Heating Degree Days 0 0  
Month to date heating degree days 0  
Since 1 June heating degree days 0  
Since 1 July heating degree days 0  
Cooling Degree Days 19 19  
Month to date cooling degree days 456  
Year to date cooling degree days 3015  
Since 1 June cooling degree days 1597  
Growing Degree Days 34 (Base 50)    
Moisture  
Dew Point 76 °F    
Average Humidity 76    
Maximum Humidity 88    
Minimum Humidity 65    
Precipitation  
Precipitation 0.03 in 0.26 in 1.96 in (1922)
Month to date precipitation 5.31  
Year to date precipitation 38.94  
Snow  
Snow 0.00 in - - ()
Month to date snowfall  
Since 1 June snowfall  
Since 1 July snowfall  
Snow Depth -    
Sea Level Pressure  
Sea Level Pressure 29.95 in    
Wind  
Wind Speed 6 mph (NE)    
Max Wind Speed 14 mph    
Max Gust Speed -    
Visibility 10 miles    
Events Rain    
T = Trace of Precipitation, MM = Missing Value Source: NWS Daily Summary

Daily Weather History Graph

Daily Weather History Graph

Search for Another Location

Airport or City:

Astronomy

Aug. 23, 2019 Rise Set
Actual Time 6:57 AM EDT 7:49 PM EDT
Civil Twilight 6:33 AM EDT 8:13 PM EDT
Nautical Twilight 6:05 AM EDT 8:41 PM EDT
Astronomical Twilight 5:36 AM EDT 9:09 PM EDT
Moon 12:19 AM EDT (8/23) 1:49 PM EDT (8/23)
Length of Visible Light 13h 39m
Length of Day
12h 52m
Waning Gibbous, 50% of the Moon is Illuminated
Aug 23
Waning Gibbous
Aug 30
New
Sep 5
First Quarter
Sep 14
Full
Sep 21
Last Quarter

Hourly Weather History & Observations

Time (EDT) Temp. Heat Index Dew Point Humidity Pressure Visibility Wind Dir Wind Speed Gust Speed Precip Events Conditions
12:53 AM 81.0 °F 86.7 °F 75.0 °F 82% 29.98 in 10.0 mi ENE 5.8 mph - N/A   Clear
1:53 AM 81.0 °F 86.2 °F 73.9 °F 79% 29.97 in 10.0 mi NE 6.9 mph - N/A   Clear
2:53 AM 81.0 °F 86.7 °F 75.0 °F 82% 29.95 in 10.0 mi NE 5.8 mph - 0.00 in   Overcast
3:53 AM 80.1 °F 85.4 °F 75.9 °F 87% 29.94 in 10.0 mi Calm Calm - N/A   Partly Cloudy
4:53 AM 79.0 °F - 75.0 °F 88% 29.94 in 10.0 mi North 3.5 mph - 0.00 in   Partly Cloudy
5:53 AM 80.1 °F 85.1 °F 75.0 °F 85% 29.93 in 10.0 mi Calm Calm - N/A   Clear
6:53 AM 79.0 °F - 75.0 °F 88% 29.95 in 10.0 mi North 4.6 mph - N/A   Scattered Clouds
7:53 AM 80.1 °F 85.4 °F 75.9 °F 87% 29.96 in 10.0 mi NNW 4.6 mph - N/A   Clear
8:53 AM 82.0 °F 90.2 °F 77.0 °F 85% 29.98 in 9.0 mi NNE 4.6 mph - N/A   Scattered Clouds
9:53 AM 87.1 °F 98.8 °F 77.0 °F 72% 29.97 in 10.0 mi North 5.8 mph - 0.02 in   Scattered Clouds
10:51 AM 87.8 °F 97.6 °F 75.2 °F 66% 29.97 in 10.0 mi ENE 8.1 mph - N/A   Mostly Cloudy
10:53 AM 88.0 °F 98.5 °F 75.9 °F 67% 29.97 in 10.0 mi ENE 8.1 mph - N/A   Mostly Cloudy
11:02 AM 87.1 °F 97.3 °F 75.9 °F 69% 29.97 in 10.0 mi NE 8.1 mph - N/A   Mostly Cloudy
11:10 AM 86.0 °F 96.0 °F 75.9 °F 72% 29.97 in 10.0 mi NE 8.1 mph - N/A   Mostly Cloudy
11:17 AM 86.0 °F 96.0 °F 75.9 °F 72% 29.98 in 9.0 mi NE 11.5 mph - 0.00 in Rain Light Rain
11:35 AM 88.0 °F 100.2 °F 77.0 °F 70% 29.97 in 10.0 mi ENE 6.9 mph - 0.00 in   Mostly Cloudy
11:45 AM 89.1 °F 100.2 °F 75.9 °F 65% 29.97 in 10.0 mi NNE 11.5 mph - 0.00 in   Scattered Clouds
11:53 AM 88.0 °F 98.5 °F 75.9 °F 67% 29.96 in 10.0 mi NNE 10.4 mph - 0.00 in   Scattered Clouds
12:53 PM 87.1 °F 96.3 °F 75.0 °F 67% 29.96 in 10.0 mi ENE 13.8 mph - N/A   Mostly Cloudy
1:53 PM 84.9 °F 94.1 °F 75.9 °F 74% 29.94 in 10.0 mi ENE 11.5 mph - 0.00 in   Mostly Cloudy
2:53 PM 84.9 °F 96.6 °F 78.1 °F 80% 29.93 in 10.0 mi NE 9.2 mph - 0.01 in   Mostly Cloudy
3:53 PM 87.1 °F 98.8 °F 77.0 °F 72% 29.91 in 10.0 mi ENE 10.4 mph - N/A   Scattered Clouds
4:53 PM 84.9 °F 94.1 °F 75.9 °F 74% 29.91 in 10.0 mi ENE 11.5 mph - N/A   Overcast
5:53 PM 88.0 °F 97.5 °F 75.0 °F 65% 29.91 in 10.0 mi ENE 6.9 mph - N/A   Partly Cloudy
6:53 PM 84.9 °F 93.3 °F 75.0 °F 72% 29.91 in 10.0 mi NE 8.1 mph - N/A   Clear
7:53 PM 82.9 °F 90.2 °F 75.0 °F 77% 29.92 in 10.0 mi NE 8.1 mph - N/A   Scattered Clouds
8:53 PM 82.0 °F 87.9 °F 73.9 °F 76% 29.92 in 10.0 mi East 4.6 mph - N/A   Partly Cloudy
9:53 PM 82.0 °F 88.6 °F 75.0 °F 79% 29.93 in 10.0 mi Calm Calm - N/A   Partly Cloudy
10:53 PM 82.0 °F 89.4 °F 75.9 °F 82% 29.95 in 10.0 mi Calm Calm - N/A   Clear
11:53 PM 82.0 °F 89.4 °F 75.9 °F 82% 29.94 in 10.0 mi Calm Calm - N/A   Partly Cloudy